| time (UTC) | temp F | wind direction | speed knots | gust knots | rain 1hr in | rain 24hr in | rain mn in | humidity % | barometer mb |
| 20260506102618 | 46 | 2 | 1.7 | 6.1 | 0.05 | 0.95 | 0.42 | 97 | 1006.6 |
| 20260506102349 | 46 | 351 | 1.7 | 7.8 | 0.06 | 0.95 | 0.42 | 97 | 1006.8 |
| 20260506101619 | 47 | 312 | 1.7 | 7.8 | 0.05 | 0.94 | 0.41 | 97 | 1006.8 |
| 20260506101119 | 47 | 312 | 1.7 | 4.3 | 0.05 | 0.94 | 0.41 | 97 | 1006.6 |
| 20260506100619 | 47 | 337 | 0.9 | 3.5 | 0.05 | 0.93 | 0.40 | 97 | 1006.5 |
| 20260506100119 | 47 | 342 | 1.7 | 4.3 | 0.04 | 0.92 | 0.39 | 97 | 1006.4 |
| 20260506095619 | 47 | 355 | 2.6 | 5.2 | 0.05 | 0.92 | 0.39 | 97 | 1006.3 |
| 20260506095120 | 47 | 353 | 1.7 | 6.1 | 0.05 | 0.91 | 0.38 | 97 | 1006.4 |
| 20260506094620 | 48 | 296 | 0.9 | 6.1 | 0.05 | 0.90 | 0.37 | 97 | 1006.4 |
| 20260506094120 | 48 | 348 | 1.7 | 4.3 | 0.06 | 0.90 | 0.37 | 97 | 1006.5 |
| 20260506093619 | 48 | 311 | 2.6 | 6.1 | 0.08 | 0.90 | 0.37 | 96 | 1006.4 |
| 20260506093120 | 48 | 309 | 1.7 | 6.1 | 0.09 | 0.90 | 0.37 | 97 | 1006.3 |
| 20260506092620 | 49 | 338 | 0.9 | 7.0 | 0.11 | 0.90 | 0.37 | 97 | 1006.3 |
| 20260506092120 | 49 | 1 | 0.9 | 7.0 | 0.11 | 0.89 | 0.36 | 97 | 1006.2 |
| 20260506091627 | 49 | 4 | 0.9 | 3.5 | 0.13 | 0.89 | 0.36 | 97 | 1006.1 |
| 20260506091620 | 49 | 324 | 0.9 | 3.5 | 0.12 | 0.89 | 0.36 | 97 | 1006.3 |
| 20260506090620 | 49 | 4 | 0.9 | 3.5 | 0.13 | 0.88 | 0.35 | 97 | 1006.1 |
| 20260506090120 | 49 | 347 | 0.0 | 3.5 | 0.14 | 0.88 | 0.35 | 97 | 1006.0 |
| 20260506085851 | 49 | 338 | 0.0 | 2.6 | 0.13 | 0.87 | 0.34 | 97 | 1006.2 |
| 20260506085120 | 49 | 354 | 0.9 | 4.3 | 0.12 | 0.86 | 0.33 | 97 | 1006.1 |
| 20260506084539 | 49 | 1 | 0.9 | 4.3 | 0.12 | 0.85 | 0.32 | 97 | 1006.2 |
| 20260506084040 | 49 | 285 | 0.0 | 0.0 | 0.11 | 0.84 | 0.31 | 97 | 1006.3 |
| 20260506083540 | 49 | 338 | 0.0 | 0.0 | 0.09 | 0.82 | 0.29 | 97 | 1006.3 |
| 20260506083039 | 49 | 333 | 0.0 | 0.0 | 0.08 | 0.80 | 0.28 | 97 | 1006.3 |
| 20260506082539 | 49 | 359 | 0.9 | 3.5 | 0.07 | 0.79 | 0.26 | 97 | 1006.3 |
| 20260506082040 | 49 | 359 | 0.9 | 3.5 | 0.07 | 0.78 | 0.25 | 97 | 1006.3 |
| 20260506081539 | 50 | 6 | 0.0 | 3.5 | 0.06 | 0.77 | 0.24 | 97 | 1006.2 |
| 20260506081041 | 50 | 1 | 0.0 | 3.5 | 0.05 | 0.76 | 0.23 | 97 | 1006.2 |
| 20260506080539 | 50 | 327 | 0.0 | 0.0 | 0.05 | 0.75 | 0.22 | 97 | 1006.2 |
| 20260506073039 | 50 | 316 | 0.0 | 0.0 | 0.06 | 0.72 | 0.19 | 97 | 1006.0 |
| 20260506072539 | 50 | 316 | 0.0 | 0.0 | 0.06 | 0.72 | 0.19 | 97 | 1006.1 |
| 20260506072310 | 50 | 316 | 0.0 | 0.0 | 0.06 | 0.71 | 0.18 | 97 | 1006.1 |
| 20260506071540 | 50 | 316 | 0.0 | 0.0 | 0.06 | 0.71 | 0.18 | 97 | 1006.0 |
| 20260506071052 | 50 | 316 | 0.0 | 0.0 | 0.05 | 0.70 | 0.18 | 97 | 1006.0 |
| 20260506070811 | 51 | 316 | 0.0 | 0.0 | 0.06 | 0.70 | 0.17 | 97 | 1006.1 |
| 20260506062039 | 52 | 311 | 0.0 | 0.0 | 0.06 | 0.65 | 0.12 | 97 | 1006.5 |
| 20260506061540 | 52 | 311 | 0.0 | 0.0 | 0.07 | 0.65 | 0.12 | 97 | 1006.6 |
| 20260506061039 | 52 | 311 | 0.0 | 0.0 | 0.07 | 0.65 | 0.12 | 97 | 1006.6 |
| 20260506060539 | 52 | 311 | 0.0 | 0.0 | 0.06 | 0.64 | 0.11 | 96 | 1006.7 |
| 20260506051039 | 52 | 311 | 0.0 | 0.0 | 0.04 | 0.58 | 0.05 | 96 | 1007.6 |
| 20260506050540 | 52 | 310 | 0.0 | 0.0 | 0.05 | 0.58 | 0.05 | 96 | 1007.7 |
| 20260506045039 | 53 | 310 | 0.0 | 0.0 | 0.05 | 0.57 | 0.04 | 96 | 1007.9 |
| 20260506044540 | 53 | 357 | 0.0 | 0.0 | 0.05 | 0.57 | 0.04 | 96 | 1007.9 |
| 20260506044039 | 53 | 357 | 0.0 | 2.6 | 0.05 | 0.57 | 0.04 | 95 | 1007.9 |
| 20260506043540 | 54 | 4 | 0.9 | 3.5 | 0.05 | 0.56 | 0.03 | 95 | 1008.0 |
| 20260506043040 | 55 | 1 | 0.0 | 4.3 | 0.06 | 0.56 | 0.03 | 96 | 1007.9 |
| 20260506042540 | 55 | 294 | 0.9 | 4.3 | 0.06 | 0.55 | 0.02 | 96 | 1007.9 |
| 20260506042039 | 55 | 300 | 1.7 | 7.0 | 0.10 | 0.55 | 0.02 | 96 | 1007.9 |
| 20260506041540 | 56 | 319 | 1.7 | 7.0 | 0.14 | 0.54 | 0.01 | 96 | 1007.9 |
| 20260506041040 | 57 | 356 | 1.7 | 7.0 | 0.17 | 0.54 | 0.01 | 96 | 1007.9 |
| 20260506040539 | 57 | 312 | 0.9 | 5.2 | 0.19 | 0.53 | 0.00 | 96 | 1007.9 |
| 20260506040041 | 57 | 311 | 0.9 | 5.2 | 0.20 | 0.53 | 0.00 | 96 | 1007.8 |
| 20260506035547 | 57 | 295 | 0.9 | 7.0 | 0.20 | 0.52 | 0.52 | 96 | 1007.8 |
| 20260506035540 | 57 | 278 | 0.9 | 5.2 | 0.20 | 0.53 | 0.53 | 96 | 1007.8 |
| 20260506034540 | 57 | 277 | 0.9 | 7.0 | 0.20 | 0.52 | 0.52 | 96 | 1007.8 |
| 20260506034310 | 57 | 258 | 0.0 | 5.2 | 0.20 | 0.52 | 0.52 | 96 | 1007.9 |
| 20260506033540 | 56 | 198 | 0.0 | 3.5 | 0.20 | 0.51 | 0.51 | 96 | 1007.9 |
| 20260506033040 | 56 | 244 | 0.0 | 3.5 | 0.19 | 0.50 | 0.51 | 96 | 1007.9 |
| 20260506032547 | 56 | 359 | 0.0 | 0.0 | 0.15 | 0.45 | 0.45 | 96 | 1007.9 |
| 20260506032540 | 56 | 359 | 0.0 | 0.0 | 0.19 | 0.49 | 0.49 | 96 | 1007.9 |
| 20260506031539 | 56 | 359 | 0.0 | 0.0 | 0.10 | 0.40 | 0.41 | 96 | 1007.9 |
| 20260506031040 | 56 | 359 | 0.0 | 0.0 | 0.08 | 0.37 | 0.37 | 95 | 1007.9 |
| 20260506030540 | 56 | 359 | 0.0 | 0.0 | 0.05 | 0.34 | 0.34 | 95 | 1008.0 |
| 20260506030052 | 56 | 359 | 0.0 | 0.0 | 0.04 | 0.33 | 0.33 | 95 | 1007.9 |
| 20260506025812 | 56 | 359 | 0.0 | 0.0 | 0.05 | 0.33 | 0.33 | 95 | 1007.9 |
| 20260506025039 | 56 | 359 | 0.0 | 0.0 | 0.04 | 0.32 | 0.32 | 95 | 1007.9 |
| 20260506024552 | 56 | 359 | 0.0 | 0.0 | 0.05 | 0.32 | 0.32 | 95 | 1007.8 |
| 20260506024040 | 56 | 359 | 0.0 | 0.0 | 0.05 | 0.32 | 0.32 | 95 | 1007.9 |
| 20260506023540 | 56 | 359 | 0.0 | 0.0 | 0.04 | 0.31 | 0.31 | 95 | 1007.9 |
| 20260506023040 | 56 | 359 | 0.0 | 0.0 | 0.04 | 0.31 | 0.31 | 94 | 1007.9 |
| 20260506022552 | 56 | 359 | 0.0 | 0.0 | 0.03 | 0.30 | 0.30 | 94 | 1007.9 |
| 20260506022040 | 56 | 359 | 0.0 | 0.0 | 0.03 | 0.30 | 0.30 | 94 | 1008.0 |
| 20260506021540 | 56 | 359 | 0.0 | 0.0 | 0.03 | 0.30 | 0.30 | 94 | 1008.0 |
| 20260506021040 | 56 | 359 | 0.0 | 0.0 | 0.02 | 0.29 | 0.29 | 94 | 1008.0 |
| 20260506020811 | 56 | 359 | 0.0 | 0.0 | 0.02 | 0.29 | 0.29 | 94 | 1008.0 |
| 20260506020053 | 56 | 359 | 0.0 | 0.0 | 0.03 | 0.29 | 0.29 | 94 | 1008.0 |
| 20260506015540 | 56 | 359 | 0.0 | 0.0 | 0.05 | 0.28 | 0.28 | 94 | 1008.2 |
| 20260506015036 | 56 | 359 | 0.0 | 0.0 | 0.15 | 0.28 | 0.28 | 93 | 1007.9 |
| 20260506014537 | 56 | 359 | 0.0 | 0.0 | 0.21 | 0.27 | 0.27 | 93 | 1007.8 |
| 20260506014044 | 56 | 359 | 0.0 | 0.0 | 0.25 | 0.27 | 0.27 | 92 | 1007.9 |
| 20260506014037 | 56 | 359 | 0.0 | 0.0 | 0.25 | 0.27 | 0.27 | 93 | 1007.7 |
| 20260506013036 | 56 | 359 | 0.0 | 0.0 | 0.25 | 0.27 | 0.27 | 92 | 1007.8 |
| 20260506012530 | 56 | 359 | 0.0 | 0.0 | 0.25 | 0.27 | 0.27 | 92 | 1007.9 |
| 20260506012029 | 56 | 359 | 0.0 | 0.0 | 0.25 | 0.27 | 0.27 | 92 | 1008.0 |
| 20260506011529 | 56 | 359 | 0.0 | 0.0 | 0.25 | 0.27 | 0.27 | 92 | 1008.0 |
| 20260506011026 | 57 | 359 | 0.0 | 3.5 | 0.25 | 0.27 | 0.27 | 91 | 1008.0 |
| 20260506010526 | 57 | 359 | 0.9 | 6.1 | 0.25 | 0.27 | 0.27 | 91 | 1008.0 |
| 20260506010257 | 58 | 340 | 2.6 | 8.7 | 0.24 | 0.26 | 0.26 | 90 | 1008.0 |
| 20260506005524 | 58 | 306 | 3.5 | 12.2 | 0.21 | 0.23 | 0.24 | 89 | 1008.7 |
| 20260506005024 | 59 | 335 | 4.3 | 12.2 | 0.11 | 0.13 | 0.14 | 88 | 1008.6 |
| 20260506004524 | 60 | 288 | 3.5 | 9.6 | 0.04 | 0.06 | 0.06 | 87 | 1007.8 |
| 20260506004024 | 61 | 291 | 0.9 | 9.6 | 0.00 | 0.02 | 0.03 | 86 | 1007.5 |
| 20260506003524 | 61 | 295 | 0.0 | 0.0 | 0.00 | 0.02 | 0.02 | 86 | 1007.3 |
| 20260506003024 | 61 | 295 | 0.0 | 0.0 | 0.00 | 0.02 | 0.02 | 86 | 1007.1 |
| 20260506002523 | 61 | 295 | 0.0 | 0.0 | 0.00 | 0.02 | 0.02 | 85 | 1007.0 |
| 20260506002024 | 61 | 295 | 0.0 | 0.0 | 0.00 | 0.02 | 0.02 | 85 | 1007.0 |
| 20260506001524 | 62 | 295 | 0.0 | 0.0 | 0.00 | 0.02 | 0.02 | 84 | 1007.1 |
| 20260506001024 | 62 | 295 | 0.0 | 0.0 | 0.00 | 0.02 | 0.02 | 84 | 1007.1 |
| 20260506000523 | 62 | 295 | 0.0 | 0.0 | 0.00 | 0.02 | 0.02 | 83 | 1007.1 |
| 20260506000024 | 62 | 295 | 0.0 | 0.0 | 0.00 | 0.02 | 0.02 | 82 | 1007.1 |
| 20260505235524 | 62 | 295 | 0.0 | 0.0 | 0.00 | 0.02 | 0.02 | 82 | 1007.1 |
| 20260505235024 | 62 | 295 | 0.0 | 0.0 | 0.00 | 0.02 | 0.02 | 82 | 1006.9 |
| 20260505234524 | 62 | 295 | 0.0 | 0.0 | 0.00 | 0.02 | 0.02 | 81 | 1007.0 |
| 20260505234024 | 62 | 295 | 0.0 | 0.0 | 0.00 | 0.02 | 0.02 | 81 | 1006.9 |
| 20260505233755 | 62 | 295 | 0.0 | 0.0 | 0.00 | 0.02 | 0.02 | 81 | 1007.0 |
| 20260505233024 | 62 | 295 | 0.0 | 0.0 | 0.00 | 0.02 | 0.02 | 81 | 1007.2 |
| 20260505232525 | 62 | 295 | 0.0 | 0.0 | 0.00 | 0.02 | 0.02 | 81 | 1007.0 |
| 20260505232255 | 63 | 295 | 0.0 | 0.0 | 0.00 | 0.02 | 0.02 | 81 | 1007.2 |
| 20260505231522 | 63 | 295 | 0.0 | 0.0 | 0.00 | 0.02 | 0.02 | 80 | 1007.2 |
| 20260505231022 | 63 | 295 | 0.0 | 0.0 | 0.00 | 0.02 | 0.02 | 80 | 1007.1 |
| 20260505230522 | 63 | 295 | 0.0 | 0.0 | 0.00 | 0.02 | 0.02 | 79 | 1007.1 |
| 20260505230022 | 63 | 295 | 0.0 | 0.0 | 0.00 | 0.02 | 0.02 | 79 | 1007.2 |
| 20260505225522 | 63 | 295 | 0.0 | 0.0 | 0.00 | 0.02 | 0.02 | 79 | 1007.3 |
| 20260505225021 | 63 | 295 | 0.0 | 0.0 | 0.00 | 0.02 | 0.02 | 78 | 1007.4 |
| 20260505224522 | 63 | 295 | 0.0 | 0.0 | 0.00 | 0.02 | 0.02 | 78 | 1007.4 |
| 20260505224022 | 63 | 295 | 0.0 | 0.0 | 0.00 | 0.02 | 0.02 | 78 | 1007.4 |
| 20260505223522 | 63 | 295 | 0.0 | 0.0 | 0.00 | 0.02 | 0.02 | 78 | 1007.5 |
| 20260505223021 | 63 | 295 | 0.0 | 0.0 | 0.00 | 0.02 | 0.02 | 78 | 1007.4 |
| 20260505222522 | 63 | 295 | 0.0 | 0.0 | 0.00 | 0.02 | 0.02 | 78 | 1007.4 |
| 20260505222022 | 63 | 295 | 0.0 | 0.0 | 0.00 | 0.02 | 0.02 | 78 | 1007.5 |
| 20260505221522 | 63 | 295 | 0.0 | 0.0 | 0.00 | 0.02 | 0.02 | 78 | 1007.5 |
| 20260505221022 | 63 | 295 | 0.0 | 0.0 | 0.00 | 0.02 | 0.02 | 78 | 1007.4 |
| 20260505220754 | 63 | 295 | 0.0 | 0.0 | 0.00 | 0.02 | 0.02 | 78 | 1007.5 |
| 20260505220022 | 63 | 298 | 0.0 | 0.0 | 0.00 | 0.02 | 0.02 | 78 | 1007.5 |
| 20260505215522 | 63 | 296 | 0.0 | 0.0 | 0.00 | 0.02 | 0.02 | 78 | 1007.5 |
| 20260505215022 | 62 | 296 | 0.0 | 2.6 | 0.00 | 0.02 | 0.02 | 78 | 1007.5 |
| 20260505214521 | 62 | 297 | 0.0 | 2.6 | 0.01 | 0.02 | 0.02 | 79 | 1007.5 |
| 20260505214021 | 62 | 291 | 0.0 | 0.0 | 0.01 | 0.02 | 0.02 | 80 | 1007.5 |
| 20260505213752 | 62 | 291 | 0.0 | 0.0 | 0.01 | 0.02 | 0.02 | 80 | 1007.5 |
| 20260505213022 | 62 | 291 | 0.0 | 0.0 | 0.01 | 0.02 | 0.02 | 80 | 1007.5 |
| 20260505212751 | 62 | 291 | 0.0 | 0.0 | 0.01 | 0.02 | 0.02 | 80 | 1007.6 |
| 20260505212021 | 62 | 291 | 0.0 | 1.7 | 0.01 | 0.02 | 0.02 | 80 | 1007.6 |
| 20260505211520 | 62 | 288 | 0.0 | 1.7 | 0.01 | 0.02 | 0.02 | 79 | 1007.6 |
| 20260505211020 | 63 | 291 | 0.0 | 0.9 | 0.01 | 0.02 | 0.02 | 78 | 1007.7 |
| 20260505210521 | 63 | 290 | 0.0 | 2.6 | 0.01 | 0.02 | 0.02 | 76 | 1007.5 |
| 20260505210021 | 64 | 281 | 0.9 | 6.1 | 0.01 | 0.02 | 0.02 | 74 | 1007.5 |
| 20260505205521 | 65 | 297 | 0.9 | 6.1 | 0.01 | 0.02 | 0.02 | 69 | 1007.7 |
| 20260505205251 | 67 | 268 | 0.0 | 6.1 | 0.01 | 0.02 | 0.02 | 63 | 1007.6 |
| 20260505204520 | 68 | 238 | 0.0 | 2.6 | 0.00 | 0.01 | 0.01 | 57 | 1007.4 |
| 20260505204021 | 68 | 277 | 0.0 | 2.6 | 0.00 | 0.01 | 0.01 | 55 | 1007.1 |
| 20260505203520 | 68 | 278 | 0.0 | 4.3 | 0.00 | 0.01 | 0.01 | 54 | 1007.1 |
| 20260505203021 | 68 | 220 | 0.0 | 4.3 | 0.00 | 0.01 | 0.01 | 54 | 1007.2 |
| 20260505202751 | 68 | 297 | 0.0 | 4.3 | 0.00 | 0.01 | 0.01 | 54 | 1007.2 |
| 20260505202020 | 68 | 163 | 0.9 | 4.3 | 0.00 | 0.01 | 0.01 | 55 | 1007.3 |
| 20260505201521 | 68 | 210 | 0.9 | 4.3 | 0.00 | 0.01 | 0.01 | 54 | 1007.5 |
| 20260505201020 | 68 | 237 | 0.9 | 4.3 | 0.00 | 0.01 | 0.01 | 54 | 1007.5 |
| 20260505200521 | 68 | 329 | 0.9 | 5.2 | 0.00 | 0.01 | 0.01 | 54 | 1007.4 |
| 20260505200252 | 68 | 251 | 0.9 | 5.2 | 0.00 | 0.01 | 0.01 | 54 | 1007.5 |
| 20260505195521 | 68 | 271 | 0.9 | 7.8 | 0.00 | 0.01 | 0.01 | 54 | 1007.7 |
| 20260505195021 | 68 | 316 | 0.9 | 7.8 | 0.00 | 0.01 | 0.01 | 54 | 1007.8 |
| 20260505194520 | 69 | 329 | 0.9 | 7.8 | 0.00 | 0.01 | 0.01 | 53 | 1007.8 |
| 20260505194253 | 68 | 41 | 0.9 | 3.5 | 0.00 | 0.01 | 0.01 | 54 | 1007.9 |
| 20260505193522 | 68 | 244 | 1.7 | 7.8 | 0.00 | 0.01 | 0.01 | 53 | 1007.9 |
| 20260505193021 | 68 | 316 | 2.6 | 7.8 | 0.00 | 0.01 | 0.01 | 53 | 1008.0 |
| 20260505192522 | 68 | 248 | 2.6 | 7.8 | 0.00 | 0.01 | 0.01 | 53 | 1007.9 |
| 20260505192022 | 68 | 129 | 1.7 | 8.7 | 0.00 | 0.01 | 0.01 | 53 | 1007.9 |
| 20260505191522 | 68 | 181 | 0.9 | 8.7 | 0.00 | 0.01 | 0.01 | 54 | 1008.0 |
| 20260505191021 | 68 | 276 | 0.9 | 8.7 | 0.00 | 0.01 | 0.01 | 53 | 1008.1 |
| 20260505190521 | 68 | 302 | 1.7 | 8.7 | 0.00 | 0.01 | 0.01 | 54 | 1008.2 |
| 20260505190022 | 68 | 248 | 1.7 | 8.7 | 0.00 | 0.01 | 0.01 | 53 | 1008.2 |
| 20260505185510 | 68 | 150 | 1.7 | 9.6 | 0.00 | 0.01 | 0.01 | 53 | 1008.1 |
| 20260505185005 | 68 | 274 | 2.6 | 9.6 | 0.00 | 0.01 | 0.01 | 51 | 1008.1 |
| 20260505184508 | 69 | 283 | 3.5 | 12.2 | 0.00 | 0.01 | 0.01 | 51 | 1008.0 |
| 20260505183959 | 69 | 159 | 2.6 | 13.0 | 0.00 | 0.01 | 0.01 | 49 | 1008.1 |
| 20260505183458 | 69 | 230 | 2.6 | 13.0 | 0.00 | 0.01 | 0.01 | 49 | 1008.1 |
| 20260505182957 | 70 | 314 | 4.3 | 14.8 | 0.00 | 0.01 | 0.01 | 47 | 1008.0 |
| 20260505182456 | 71 | 233 | 2.6 | 14.8 | 0.00 | 0.01 | 0.01 | 47 | 1008.0 |
| 20260505182227 | 71 | 278 | 1.7 | 11.3 | 0.00 | 0.01 | 0.01 | 47 | 1007.8 |
| 20260505181456 | 71 | 271 | 4.3 | 13.9 | 0.00 | 0.01 | 0.01 | 45 | 1007.8 |
| 20260505180956 | 71 | 182 | 5.2 | 13.9 | 0.00 | 0.01 | 0.01 | 47 | 1007.7 |
| 20260505180456 | 71 | 190 | 4.3 | 12.2 | 0.00 | 0.01 | 0.01 | 45 | 1007.9 |
| 20260505175953 | 70 | 131 | 4.3 | 11.3 | 0.00 | 0.01 | 0.01 | 48 | 1007.7 |
| 20260505175453 | 69 | 330 | 3.5 | 12.2 | 0.00 | 0.01 | 0.01 | 48 | 1007.7 |
| 20260505174953 | 69 | 249 | 1.7 | 13.0 | 0.00 | 0.01 | 0.01 | 51 | 1007.7 |
| 20260505174453 | 69 | 181 | 2.6 | 13.0 | 0.00 | 0.01 | 0.01 | 50 | 1007.8 |
| 20260505173955 | 70 | 240 | 3.5 | 13.9 | 0.00 | 0.01 | 0.01 | 50 | 1007.7 |
| 20260505173447 | 70 | 259 | 3.5 | 13.9 | 0.00 | 0.01 | 0.01 | 48 | 1007.7 |
| 20260505172946 | 71 | 224 | 2.6 | 9.6 | 0.00 | 0.01 | 0.01 | 48 | 1007.5 |
| 20260505172446 | 71 | 148 | 2.6 | 13.0 | 0.00 | 0.01 | 0.01 | 48 | 1007.5 |
| 20260505171945 | 71 | 236 | 2.6 | 13.0 | 0.00 | 0.01 | 0.01 | 51 | 1007.5 |
| 20260505171443 | 70 | 328 | 1.7 | 12.2 | 0.00 | 0.01 | 0.01 | 49 | 1007.6 |
| 20260505170945 | 70 | 193 | 3.5 | 12.2 | 0.00 | 0.01 | 0.01 | 49 | 1007.5 |
| 20260505170441 | 70 | 287 | 3.5 | 14.8 | 0.00 | 0.01 | 0.01 | 48 | 1007.6 |
| 20260505165942 | 70 | 238 | 3.5 | 14.8 | 0.00 | 0.01 | 0.01 | 48 | 1007.5 |
| 20260505165439 | 70 | 240 | 2.6 | 11.3 | 0.00 | 0.01 | 0.01 | 49 | 1007.5 |
| 20260505164939 | 70 | 249 | 2.6 | 9.6 | 0.00 | 0.01 | 0.01 | 50 | 1007.4 |
| 20260505164439 | 70 | 271 | 3.5 | 11.3 | 0.00 | 0.01 | 0.01 | 49 | 1007.5 |
| 20260505163939 | 70 | 144 | 3.5 | 11.3 | 0.00 | 0.01 | 0.01 | 48 | 1007.4 |
| 20260505163439 | 70 | 102 | 2.6 | 10.4 | 0.00 | 0.01 | 0.01 | 48 | 1007.3 |
| 20260505162939 | 71 | 240 | 2.6 | 10.4 | 0.00 | 0.01 | 0.01 | 48 | 1007.3 |
| 20260505162709 | 70 | 297 | 1.7 | 10.4 | 0.00 | 0.01 | 0.01 | 52 | 1007.3 |
| 20260505161938 | 70 | 179 | 1.7 | 10.4 | 0.00 | 0.01 | 0.01 | 51 | 1007.2 |
| 20260505161438 | 69 | 276 | 2.6 | 10.4 | 0.00 | 0.01 | 0.01 | 51 | 1007.3 |
| 20260505160941 | 69 | 307 | 3.5 | 10.4 | 0.00 | 0.01 | 0.01 | 51 | 1007.6 |
| 20260505160440 | 69 | 359 | 3.5 | 13.9 | 0.00 | 0.01 | 0.01 | 50 | 1007.6 |
| 20260505152937 | 68 | 243 | 2.6 | 13.0 | 0.00 | 0.01 | 0.01 | 60 | 1007.8 |
| 20260505152438 | 67 | 240 | 2.6 | 9.6 | 0.00 | 0.01 | 0.01 | 61 | 1007.8 |
| 20260505151938 | 67 | 247 | 1.7 | 8.7 | 0.00 | 0.01 | 0.01 | 61 | 1007.7 |
| 20260505151437 | 66 | 117 | 0.9 | 7.8 | 0.01 | 0.01 | 0.01 | 67 | 1007.7 |
| 20260505150936 | 65 | 221 | 2.6 | 9.6 | 0.01 | 0.01 | 0.01 | 64 | 1007.8 |
| 20260505150436 | 65 | 176 | 2.6 | 11.3 | 0.01 | 0.01 | 0.01 | 66 | 1007.7 |
| 20260505140432 | 63 | 198 | 0.9 | 7.0 | 0.00 | 0.00 | 0.00 | 67 | 1007.5 |
| 20260505130156 | 65 | 217 | 0.9 | 7.0 | 0.00 | 0.00 | 0.00 | 60 | 1007.4 |
| 20260505124923 | 64 | 98 | 0.9 | 7.0 | 0.00 | 0.00 | 0.00 | 60 | 1007.3 |
| 20260505124423 | 65 | 305 | 1.7 | 7.8 | 0.00 | 0.00 | 0.00 | 60 | 1007.3 |
| 20260505123923 | 65 | 234 | 1.7 | 7.8 | 0.00 | 0.00 | 0.00 | 59 | 1007.4 |
| 20260505123420 | 65 | 207 | 0.9 | 7.8 | 0.00 | 0.00 | 0.00 | 60 | 1007.4 |
| 20260505122920 | 65 | 241 | 0.9 | 7.8 | 0.00 | 0.00 | 0.00 | 60 | 1007.4 |
| 20260505122421 | 65 | 255 | 0.9 | 7.8 | 0.00 | 0.00 | 0.00 | 61 | 1007.2 |
| 20260505121920 | 64 | 271 | 0.9 | 10.4 | 0.00 | 0.00 | 0.00 | 62 | 1007.2 |
| 20260505121421 | 64 | 184 | 1.7 | 10.4 | 0.00 | 0.00 | 0.00 | 61 | 1007.3 |
| 20260505120921 | 63 | 151 | 0.9 | 6.1 | 0.00 | 0.00 | 0.00 | 61 | 1007.2 |
| 20260505120652 | 63 | 186 | 0.9 | 6.1 | 0.00 | 0.00 | 0.00 | 62 | 1007.2 |
| 20260505115921 | 63 | 207 | 0.9 | 6.1 | 0.00 | 0.00 | 0.00 | 62 | 1007.4 |
| 20260505115421 | 63 | 193 | 0.9 | 7.0 | 0.00 | 0.00 | 0.00 | 63 | 1007.3 |
| 20260505114920 | 62 | 205 | 0.9 | 7.0 | 0.00 | 0.00 | 0.00 | 63 | 1007.2 |
| 20260505114421 | 62 | 141 | 1.7 | 7.8 | 0.00 | 0.00 | 0.00 | 63 | 1007.2 |
| 20260505113920 | 62 | 195 | 1.7 | 7.8 | 0.00 | 0.00 | 0.00 | 63 | 1007.2 |
| 20260505113420 | 62 | 218 | 1.7 | 8.7 | 0.00 | 0.00 | 0.00 | 62 | 1007.1 |
| 20260505112920 | 62 | 172 | 1.7 | 8.7 | 0.00 | 0.00 | 0.00 | 62 | 1007.0 |
| 20260505112419 | 62 | 221 | 0.9 | 7.8 | 0.00 | 0.00 | 0.00 | 63 | 1007.1 |
| 20260505111919 | 62 | 182 | 0.9 | 6.1 | 0.00 | 0.00 | 0.00 | 64 | 1006.9 |
| 20260505111419 | 62 | 216 | 0.9 | 7.8 | 0.00 | 0.00 | 0.00 | 64 | 1006.8 |
| 20260505110920 | 62 | 173 | 0.9 | 10.4 | 0.00 | 0.00 | 0.00 | 64 | 1006.9 |
| 20260505110652 | 61 | 212 | 0.9 | 10.4 | 0.00 | 0.00 | 0.00 | 64 | 1006.8 |
| 20260505110154 | 61 | 266 | 0.0 | 5.2 | 0.00 | 0.00 | 0.00 | 65 | 1007.0 |